EXS95WL LEMH-EGNT

Flight info

Callsign EXS95WL
Flight time 2h 22m
Altitude 36000
Route MEROS DCT LAPIT DCT CHELY DCT LUMAS DCT SOFFY DCT MRM DCT ETREK DCT MADOT/N0446F380 DCT MOPEM DCT CACHI DCT AVLON DCT OKRIX DCT BRY DCT CLM DCT KOPOR DCT VESAN DCT RATUK DCT SOVAT L613 MAMUL UY250 RIMTO
Aircraft B738/M-SDE2E3FGHIRWXY/LB1

Departure

Time 2026-05-07 16:23
Airport Menorca Airport (LEMH)

Arrival

Time 2026-05-07 18:45
Airport Newcastle International Airport (EGNT)
Time Latitude Longitude Altitude Speed Heading
2026-05-07 15:58 39.86373 4.22387 301 ft 0 kts 98°
2026-05-07 16:13 39.86375 4.22370 299 ft 2 kts 98°
2026-05-07 16:14 39.86377 4.22349 299 ft 2 kts 102°
2026-05-07 16:14 39.86383 4.22330 302 ft 2 kts 124°
2026-05-07 16:14 39.86393 4.22314 300 ft 2 kts 144°
2026-05-07 16:14 39.86408 4.22304 299 ft 2 kts 177°
2026-05-07 16:15 39.86409 4.22304 299 ft 0 kts 181°
2026-05-07 16:17 39.86408 4.22304 299 ft 1 kts 182°
2026-05-07 16:17 39.86380 4.22299 299 ft 8 kts 188°
2026-05-07 16:18 39.86315 4.22286 300 ft 10 kts 189°
2026-05-07 16:18 39.86247 4.22272 298 ft 10 kts 189°
2026-05-07 16:18 39.86189 4.22244 299 ft 8 kts 236°
2026-05-07 16:18 39.86188 4.22170 297 ft 9 kts 277°
2026-05-07 16:19 39.86171 4.22090 299 ft 10 kts 214°
2026-05-07 16:19 39.86094 4.22070 296 ft 13 kts 188°
2026-05-07 16:19 39.85985 4.22048 295 ft 17 kts 189°
2026-05-07 16:19 39.85869 4.22023 294 ft 17 kts 189°
2026-05-07 16:20 39.85757 4.22000 297 ft 17 kts 189°
2026-05-07 16:20 39.85631 4.21975 296 ft 20 kts 189°
2026-05-07 16:20 39.85494 4.21947 293 ft 20 kts 189°
2026-05-07 16:20 39.85362 4.21918 289 ft 19 kts 189°
2026-05-07 16:21 39.85232 4.21893 288 ft 19 kts 189°
2026-05-07 16:21 39.85132 4.21852 287 ft 13 kts 233°
2026-05-07 16:21 39.85134 4.21742 286 ft 12 kts 278°
2026-05-07 16:21 39.85143 4.21666 286 ft 5 kts 278°
2026-05-07 16:22 39.85156 4.21641 286 ft 2 kts 345°
2026-05-07 16:22 39.85175 4.21642 286 ft 4 kts
2026-05-07 16:22 39.85331 4.21676 287 ft 56 kts
2026-05-07 16:22 39.85951 4.21803 296 ft 122 kts
2026-05-07 16:23 39.86972 4.22010 418 ft 167 kts 11°
2026-05-07 16:23 39.88116 4.22253 1270 ft 167 kts 13°
2026-05-07 16:23 39.89291 4.22488 2044 ft 174 kts 12°
2026-05-07 16:23 39.90520 4.22732 2718 ft 188 kts 13°
2026-05-07 16:24 39.91920 4.23042 3021 ft 217 kts 13°
2026-05-07 16:24 39.93502 4.23390 3220 ft 243 kts 12°
2026-05-07 16:24 39.95241 4.23768 3549 ft 260 kts 12°
2026-05-07 16:24 39.97059 4.24156 4253 ft 266 kts 11°
2026-05-07 16:25 39.98868 4.24539 5169 ft 268 kts 11°
2026-05-07 16:25 40.00722 4.24933 6028 ft 272 kts 11°
2026-05-07 16:25 40.02609 4.25355 6811 ft 277 kts 11°
2026-05-07 16:25 40.04522 4.25806 7617 ft 282 kts 11°
2026-05-07 16:26 40.06468 4.26270 8402 ft 287 kts 11°
2026-05-07 16:26 40.08448 4.26742 9185 ft 292 kts 10°
2026-05-07 16:26 40.10468 4.27224 9959 ft 297 kts 10°
2026-05-07 16:26 40.11822 4.27546 10389 ft 303 kts
2026-05-07 16:27 40.14706 4.28230 10710 ft 334 kts
2026-05-07 16:27 40.17043 4.28786 11180 ft 347 kts
2026-05-07 16:27 40.19444 4.29357 11816 ft 354 kts
2026-05-07 16:27 40.21874 4.29935 12596 ft 357 kts
2026-05-07 16:28 40.24328 4.30520 13349 ft 361 kts
2026-05-07 16:28 40.26816 4.31113 14025 ft 366 kts
2026-05-07 16:28 40.29335 4.31713 14667 ft 370 kts
2026-05-07 16:28 40.31844 4.32311 15311 ft 374 kts
2026-05-07 16:29 40.34419 4.32926 15959 ft 378 kts
2026-05-07 16:29 40.37017 4.33547 16620 ft 381 kts
2026-05-07 16:29 40.39640 4.34174 17266 ft 386 kts
2026-05-07 16:29 40.42298 4.34810 17883 ft 390 kts
2026-05-07 16:30 40.44987 4.35454 18454 ft 395 kts
2026-05-07 16:30 40.47708 4.36106 18988 ft 399 kts
2026-05-07 16:30 40.50454 4.36764 19526 ft 403 kts
2026-05-07 16:30 40.53188 4.37418 20053 ft 407 kts
2026-05-07 16:31 40.55987 4.38085 20577 ft 411 kts
2026-05-07 16:31 40.58811 4.38758 21100 ft 415 kts
2026-05-07 16:31 40.61663 4.39439 21611 ft 418 kts
2026-05-07 16:31 40.64539 4.40127 22130 ft 422 kts
2026-05-07 16:32 40.67440 4.40822 22643 ft 425 kts
2026-05-07 16:32 40.70364 4.41523 23145 ft 429 kts
2026-05-07 16:32 40.73311 4.42231 23614 ft 432 kts
2026-05-07 16:32 40.76284 4.42945 24016 ft 436 kts
2026-05-07 16:33 40.78264 4.43422 24283 ft 438 kts
2026-05-07 16:33 40.82254 4.44383 24793 ft 443 kts
2026-05-07 16:33 40.85300 4.45116 25147 ft 447 kts
2026-05-07 16:33 40.88367 4.45856 25513 ft 450 kts
2026-05-07 16:34 40.91462 4.46603 25869 ft 454 kts
2026-05-07 16:34 40.94583 4.47358 26206 ft 458 kts
2026-05-07 16:34 40.96666 4.47863 26440 ft 460 kts
2026-05-07 16:34 40.99823 4.48630 26787 ft 463 kts
2026-05-07 16:35 41.03003 4.49404 27140 ft 466 kts
2026-05-07 16:35 41.07249 4.50436 27585 ft 471 kts
2026-05-07 16:35 41.10481 4.51222 27906 ft 474 kts
2026-05-07 16:35 41.13735 4.52013 28226 ft 477 kts
2026-05-07 16:36 41.17008 4.52809 28545 ft 480 kts
2026-05-07 16:36 41.19187 4.53340 28749 ft 482 kts
2026-05-07 16:36 41.22492 4.54146 29061 ft 485 kts
2026-05-07 16:36 41.25818 4.54959 29362 ft 488 kts
2026-05-07 16:37 41.29168 4.55778 29653 ft 491 kts
2026-05-07 16:37 41.33629 4.56871 30020 ft 494 kts
2026-05-07 16:37 41.37025 4.57704 30261 ft 497 kts
2026-05-07 16:37 41.40428 4.58540 30520 ft 498 kts
2026-05-07 16:38 41.42690 4.59096 30690 ft 500 kts
2026-05-07 16:38 41.46110 4.59938 30961 ft 501 kts
2026-05-07 16:38 41.49538 4.60783 31278 ft 501 kts
2026-05-07 16:38 41.52959 4.61627 31638 ft 499 kts
2026-05-07 16:39 41.57482 4.62745 32090 ft 499 kts
2026-05-07 16:39 41.59783 4.63314 32298 ft 499 kts
2026-05-07 16:39 41.63195 4.64157 32608 ft 498 kts
2026-05-07 16:39 41.66605 4.65001 32939 ft 498 kts
2026-05-07 16:40 41.69962 4.65833 33246 ft 497 kts
2026-05-07 16:40 41.73370 4.66601 33517 ft 495 kts
2026-05-07 16:40 41.76777 4.66831 33803 ft 488 kts 353°
2026-05-07 16:40 41.80165 4.66817 34101 ft 486 kts 352°
2026-05-07 16:41 41.83536 4.66745 34360 ft 485 kts 352°
2026-05-07 16:41 41.86911 4.66662 34612 ft 484 kts 352°
2026-05-07 16:41 41.90278 4.66587 34868 ft 484 kts 352°
2026-05-07 16:41 41.93641 4.66530 35135 ft 483 kts 352°
2026-05-07 16:42 41.96954 4.66487 35373 ft 483 kts 353°
2026-05-07 16:42 42.00312 4.66454 35587 ft 483 kts 353°
2026-05-07 16:42 42.03669 4.66427 35834 ft 482 kts 353°
2026-05-07 16:42 42.07027 4.66402 35978 ft 484 kts 353°
2026-05-07 16:43 42.10410 4.66376 35965 ft 487 kts 353°
2026-05-07 16:43 42.17167 4.66328 35958 ft 484 kts 353°
2026-05-07 16:44 42.23836 4.66284 35959 ft 477 kts 353°
2026-05-07 16:44 42.30429 4.66232 35966 ft 476 kts 353°
2026-05-07 16:45 42.37053 4.66177 35964 ft 476 kts 353°
2026-05-07 16:45 42.43679 4.66124 35968 ft 476 kts 353°
2026-05-07 16:46 42.50262 4.66072 35964 ft 476 kts 353°
2026-05-07 16:46 42.56893 4.66019 35971 ft 477 kts 353°
2026-05-07 16:47 42.63526 4.65967 35970 ft 477 kts 353°
2026-05-07 16:47 42.70169 4.65915 35966 ft 477 kts 353°
2026-05-07 16:48 42.76816 4.65863 35961 ft 477 kts 353°
2026-05-07 16:48 42.83412 4.65811 35960 ft 477 kts 353°
2026-05-07 16:49 42.90048 4.65759 35957 ft 477 kts 353°
2026-05-07 16:49 42.96682 4.65706 35964 ft 476 kts 353°
2026-05-07 16:50 43.03313 4.65653 35961 ft 476 kts 353°
2026-05-07 16:50 43.09892 4.65601 35960 ft 476 kts 353°
2026-05-07 16:51 43.16515 4.65548 35957 ft 476 kts 353°
2026-05-07 16:51 43.23128 4.65495 35962 ft 475 kts 353°
2026-05-07 16:52 43.29733 4.65442 35967 ft 475 kts 354°
2026-05-07 16:52 43.36291 4.65389 35967 ft 474 kts 354°
2026-05-07 16:53 43.42888 4.65336 35960 ft 474 kts 354°
2026-05-07 16:53 43.49476 4.65283 35960 ft 473 kts 354°
2026-05-07 16:54 43.56060 4.65229 35959 ft 473 kts 354°
2026-05-07 16:54 43.62591 4.65177 35957 ft 472 kts 354°
2026-05-07 16:55 43.69164 4.65123 35959 ft 472 kts 354°
2026-05-07 16:55 43.75735 4.65069 35961 ft 472 kts 354°
2026-05-07 16:56 43.82304 4.65015 35956 ft 472 kts 354°
2026-05-07 16:56 43.92121 4.64934 35944 ft 473 kts 354°
2026-05-07 16:57 43.98697 4.64880 35939 ft 473 kts 354°
2026-05-07 16:57 44.05282 4.64826 35942 ft 473 kts 354°
2026-05-07 16:58 44.11870 4.64771 35940 ft 474 kts 355°
2026-05-07 16:58 44.18423 4.64717 35944 ft 474 kts 355°
2026-05-07 16:59 44.25020 4.64663 35933 ft 474 kts 355°
2026-05-07 16:59 44.31618 4.64608 35935 ft 474 kts 355°
2026-05-07 17:00 44.38173 4.64554 35933 ft 474 kts 355°
2026-05-07 17:00 44.44757 4.64499 35934 ft 473 kts 355°
2026-05-07 17:01 44.51340 4.64444 35944 ft 473 kts 355°
2026-05-07 17:01 44.57916 4.64389 35946 ft 472 kts 355°
2026-05-07 17:02 44.64487 4.64333 35939 ft 472 kts 355°
2026-05-07 17:02 44.71003 4.64279 35949 ft 471 kts 355°
2026-05-07 17:03 44.77539 4.64224 35944 ft 469 kts 355°
2026-05-07 17:03 44.84096 4.64167 36239 ft 471 kts 356°
2026-05-07 17:04 44.87364 4.64139 36503 ft 469 kts 356°
2026-05-07 17:04 44.90629 4.64113 36769 ft 468 kts 356°
2026-05-07 17:04 44.93880 4.64086 37010 ft 467 kts 356°
2026-05-07 17:04 44.97133 4.64058 37211 ft 467 kts 356°
2026-05-07 17:05 45.00387 4.64030 37381 ft 468 kts 356°
2026-05-07 17:05 45.03597 4.64002 37573 ft 468 kts 356°
2026-05-07 17:05 45.06851 4.63974 37772 ft 467 kts 356°
2026-05-07 17:05 45.10102 4.63947 37942 ft 468 kts 356°
2026-05-07 17:06 45.16627 4.63890 37969 ft 469 kts 356°
2026-05-07 17:06 45.23079 4.63122 37987 ft 463 kts 347°
2026-05-07 17:07 45.29365 4.61586 37973 ft 460 kts 347°
2026-05-07 17:07 45.35669 4.60034 37976 ft 459 kts 347°
2026-05-07 17:08 45.41969 4.58560 37987 ft 459 kts 347°
2026-05-07 17:08 45.48269 4.57115 37988 ft 459 kts 348°
2026-05-07 17:09 45.54532 4.55676 37993 ft 459 kts 348°
2026-05-07 17:09 45.60846 4.54218 37997 ft 460 kts 348°
2026-05-07 17:10 45.67171 4.52754 37995 ft 461 kts 348°
2026-05-07 17:10 45.73509 4.51284 37993 ft 462 kts 348°
2026-05-07 17:11 45.79814 4.49818 37990 ft 463 kts 348°
2026-05-07 17:11 45.86170 4.48337 37989 ft 463 kts 348°
2026-05-07 17:12 45.92535 4.46851 37984 ft 463 kts 348°
2026-05-07 17:12 45.98898 4.45362 37993 ft 463 kts 348°
2026-05-07 17:13 46.05264 4.43868 37990 ft 463 kts 348°
2026-05-07 17:13 46.11580 4.42382 37983 ft 463 kts 348°
2026-05-07 17:14 46.17935 4.40883 37991 ft 463 kts 348°
2026-05-07 17:14 46.24286 4.39383 37996 ft 462 kts 348°
2026-05-07 17:15 46.30609 4.37766 37993 ft 460 kts 345°
2026-05-07 17:15 46.36782 4.35625 37987 ft 459 kts 343°
2026-05-07 17:16 46.42965 4.33355 37999 ft 458 kts 343°
2026-05-07 17:16 46.49145 4.31136 37995 ft 457 kts 343°
2026-05-07 17:17 46.55328 4.28950 37992 ft 457 kts 343°
2026-05-07 17:17 46.61469 4.26784 37990 ft 457 kts 343°
2026-05-07 17:18 46.67641 4.24602 37993 ft 456 kts 343°
2026-05-07 17:18 46.73811 4.22414 37998 ft 456 kts 343°
2026-05-07 17:19 46.79976 4.20221 37995 ft 456 kts 343°
2026-05-07 17:19 46.86139 4.18024 37995 ft 456 kts 343°
2026-05-07 17:20 46.92254 4.15839 37880 ft 454 kts 342°
2026-05-07 17:20 46.98368 4.13650 37989 ft 451 kts 342°
2026-05-07 17:21 47.04460 4.11462 37992 ft 450 kts 342°
2026-05-07 17:21 47.10391 4.08709 38004 ft 445 kts 334°
2026-05-07 17:22 47.16063 4.05268 38002 ft 444 kts 333°
2026-05-07 17:22 47.21762 4.01785 38008 ft 444 kts 334°
2026-05-07 17:23 47.27486 3.98357 38004 ft 444 kts 334°
2026-05-07 17:23 47.33218 3.94952 38007 ft 444 kts 334°
2026-05-07 17:24 47.38957 3.91536 38011 ft 445 kts 334°
2026-05-07 17:24 47.44658 3.88132 38008 ft 445 kts 334°
2026-05-07 17:25 47.50408 3.84690 38004 ft 446 kts 334°
2026-05-07 17:25 47.56165 3.81237 38006 ft 447 kts 334°
2026-05-07 17:26 47.61932 3.77771 38015 ft 447 kts 334°
2026-05-07 17:26 47.67659 3.74321 38009 ft 448 kts 334°
2026-05-07 17:27 47.73436 3.70833 38008 ft 448 kts 334°
2026-05-07 17:27 47.79208 3.67339 38009 ft 448 kts 334°
2026-05-07 17:28 47.84984 3.63834 38020 ft 448 kts 334°
2026-05-07 17:28 47.90716 3.60346 38010 ft 448 kts 334°
2026-05-07 17:29 47.96489 3.56827 38018 ft 448 kts 334°
2026-05-07 17:29 48.02257 3.53293 38016 ft 448 kts 334°
2026-05-07 17:30 48.08020 3.49747 38016 ft 448 kts 334°
2026-05-07 17:30 48.13777 3.46196 38023 ft 447 kts 334°
2026-05-07 17:31 48.19491 3.42664 38021 ft 447 kts 334°
2026-05-07 17:31 48.25245 3.39099 38025 ft 447 kts 334°
2026-05-07 17:32 48.30992 3.35529 38025 ft 447 kts 334°
2026-05-07 17:32 48.36743 3.31948 38030 ft 447 kts 334°
2026-05-07 17:33 48.42487 3.28364 38025 ft 447 kts 334°
2026-05-07 17:33 48.48209 3.24820 38030 ft 447 kts 334°
2026-05-07 17:34 48.53969 3.21254 38028 ft 448 kts 334°
2026-05-07 17:34 48.59730 3.17673 38027 ft 448 kts 334°
2026-05-07 17:35 48.65491 3.14080 38030 ft 448 kts 334°
2026-05-07 17:35 48.71212 3.10501 38028 ft 448 kts 334°
2026-05-07 17:36 48.76973 3.06887 38035 ft 448 kts 334°
2026-05-07 17:36 48.82740 3.03262 38039 ft 449 kts 334°
2026-05-07 17:37 48.88506 2.99628 38044 ft 449 kts 334°
2026-05-07 17:37 48.94236 2.96008 38044 ft 449 kts 334°
2026-05-07 17:38 49.00005 2.92353 38046 ft 449 kts 334°
2026-05-07 17:38 49.05779 2.88687 38046 ft 449 kts 334°
2026-05-07 17:39 49.11557 2.85009 38047 ft 450 kts 334°
2026-05-07 17:39 49.17329 2.81325 38049 ft 450 kts 334°
2026-05-07 17:40 49.23065 2.77655 38043 ft 450 kts 334°
2026-05-07 17:40 49.28838 2.73952 38042 ft 450 kts 334°
2026-05-07 17:41 49.34608 2.70242 38040 ft 450 kts 334°
2026-05-07 17:41 49.40376 2.66523 38038 ft 450 kts 334°
2026-05-07 17:42 49.46106 2.62819 38040 ft 450 kts 334°
2026-05-07 17:42 49.51863 2.59088 38043 ft 449 kts 334°
2026-05-07 17:43 49.57628 2.55343 38040 ft 449 kts 334°
2026-05-07 17:43 49.63385 2.51592 38042 ft 449 kts 334°
2026-05-07 17:44 49.69102 2.47859 38041 ft 449 kts 334°
2026-05-07 17:44 49.74860 2.44090 38039 ft 449 kts 334°
2026-05-07 17:45 49.80612 2.40314 38043 ft 449 kts 334°
2026-05-07 17:45 49.86367 2.36526 38043 ft 449 kts 334°
2026-05-07 17:46 49.92081 2.32756 38047 ft 449 kts 334°
2026-05-07 17:46 49.97831 2.28952 38044 ft 449 kts 334°
2026-05-07 17:47 50.03584 2.25136 38039 ft 449 kts 334°
2026-05-07 17:47 50.09335 2.21311 38041 ft 450 kts 334°
2026-05-07 17:48 50.15087 2.17476 38040 ft 450 kts 334°
2026-05-07 17:48 50.20797 2.13653 38035 ft 450 kts 334°
2026-05-07 17:49 50.26545 2.09804 38041 ft 450 kts 334°
2026-05-07 17:49 50.32297 2.05940 38036 ft 450 kts 334°
2026-05-07 17:50 50.37892 2.01629 38033 ft 446 kts 323°
2026-05-07 17:50 50.42607 1.95507 38045 ft 443 kts 315°
2026-05-07 17:51 50.47206 1.89075 38046 ft 443 kts 316°
2026-05-07 17:51 50.51836 1.82680 38046 ft 443 kts 316°
2026-05-07 17:52 50.56482 1.76310 38051 ft 444 kts 316°
2026-05-07 17:52 50.61102 1.69966 38048 ft 444 kts 316°
2026-05-07 17:53 50.65746 1.63570 38046 ft 444 kts 316°
2026-05-07 17:53 50.70387 1.57150 38047 ft 443 kts 316°
2026-05-07 17:54 50.75018 1.50726 38046 ft 443 kts 316°
2026-05-07 17:54 50.79646 1.44292 38049 ft 443 kts 316°
2026-05-07 17:55 50.84272 1.37849 38047 ft 443 kts 316°
2026-05-07 17:55 50.88891 1.31397 38060 ft 443 kts 316°
2026-05-07 17:56 50.93474 1.24976 38073 ft 443 kts 316°
2026-05-07 17:56 50.98082 1.18503 38079 ft 443 kts 316°
2026-05-07 17:57 51.01909 1.13114 38083 ft 443 kts 316°
2026-05-07 17:57 51.07336 1.05594 38058 ft 444 kts 320°
2026-05-07 17:58 51.12381 0.99902 38078 ft 445 kts 323°
2026-05-07 17:58 51.17515 0.94376 38068 ft 446 kts 323°
2026-05-07 17:59 51.22595 0.88827 38067 ft 446 kts 323°
2026-05-07 17:59 51.27689 0.83177 37995 ft 446 kts 322°
2026-05-07 18:00 51.32780 0.77491 38075 ft 446 kts 322°
2026-05-07 18:00 51.37864 0.71795 38065 ft 446 kts 322°
2026-05-07 18:01 51.42920 0.66115 38070 ft 447 kts 322°
2026-05-07 18:01 51.48004 0.60392 38067 ft 447 kts 322°
2026-05-07 18:02 51.55627 0.51779 38076 ft 447 kts 322°
2026-05-07 18:03 51.60703 0.46024 38068 ft 447 kts 322°
2026-05-07 18:03 51.65781 0.40251 38071 ft 447 kts 322°
2026-05-07 18:04 51.70857 0.34464 38071 ft 447 kts 322°
2026-05-07 18:04 51.75896 0.28702 38076 ft 447 kts 322°
2026-05-07 18:05 51.80968 0.22886 38081 ft 447 kts 322°
2026-05-07 18:05 51.86088 0.17185 38072 ft 449 kts 328°
2026-05-07 18:06 51.91608 0.12442 38073 ft 450 kts 331°
2026-05-07 18:06 51.97195 0.07876 38074 ft 450 kts 330°
2026-05-07 18:07 52.02763 0.03246 38068 ft 450 kts 330°
2026-05-07 18:07 52.08269 -0.01419 38069 ft 450 kts 330°
2026-05-07 18:08 52.13807 -0.06149 38067 ft 450 kts 330°
2026-05-07 18:08 52.19346 -0.10897 38065 ft 450 kts 330°
2026-05-07 18:09 52.24886 -0.15658 38059 ft 450 kts 330°
2026-05-07 18:09 52.30425 -0.20430 38055 ft 450 kts 330°
2026-05-07 18:10 52.35933 -0.25189 38028 ft 451 kts 330°
2026-05-07 18:10 52.41475 -0.29990 38032 ft 451 kts 330°
2026-05-07 18:11 52.47021 -0.34808 38021 ft 451 kts 330°
2026-05-07 18:11 52.52573 -0.39646 38024 ft 451 kts 330°
2026-05-07 18:12 52.58079 -0.44457 38025 ft 452 kts 330°
2026-05-07 18:12 52.63626 -0.49319 38022 ft 452 kts 330°
2026-05-07 18:13 52.69170 -0.54191 38022 ft 452 kts 329°
2026-05-07 18:13 52.74718 -0.59082 38027 ft 452 kts 329°
2026-05-07 18:14 52.80232 -0.63956 38044 ft 452 kts 329°
2026-05-07 18:14 52.85775 -0.68870 38046 ft 452 kts 329°
2026-05-07 18:15 52.91321 -0.73802 38048 ft 452 kts 329°
2026-05-07 18:15 52.96866 -0.78747 38041 ft 453 kts 329°
2026-05-07 18:16 53.02408 -0.83703 38041 ft 453 kts 329°
2026-05-07 18:16 53.07952 -0.88677 38038 ft 453 kts 329°
2026-05-07 18:17 53.13502 -0.93670 38038 ft 453 kts 329°
2026-05-07 18:17 53.19049 -0.98676 38042 ft 454 kts 329°
2026-05-07 18:18 53.24561 -1.03664 38030 ft 454 kts 329°
2026-05-07 18:18 53.30111 -1.08702 38018 ft 454 kts 329°
2026-05-07 18:18 53.32904 -1.11243 37724 ft 459 kts 329°
2026-05-07 18:19 53.35723 -1.13813 37242 ft 462 kts 329°
2026-05-07 18:19 53.38543 -1.16387 36693 ft 461 kts 330°
2026-05-07 18:19 53.41352 -1.18953 36118 ft 459 kts 330°
2026-05-07 18:19 53.44153 -1.21516 35535 ft 457 kts 330°
2026-05-07 18:20 53.46903 -1.24036 34997 ft 456 kts 330°
2026-05-07 18:20 53.49684 -1.26589 34446 ft 455 kts 330°
2026-05-07 18:20 53.52466 -1.29147 33842 ft 459 kts 330°
2026-05-07 18:20 53.55311 -1.31768 33177 ft 471 kts 330°
2026-05-07 18:21 53.58179 -1.34414 32494 ft 469 kts 330°
2026-05-07 18:21 53.61032 -1.37048 31832 ft 466 kts 330°
2026-05-07 18:21 53.63843 -1.39647 31197 ft 465 kts 330°
2026-05-07 18:21 53.66671 -1.42267 30577 ft 464 kts 330°
2026-05-07 18:22 53.69495 -1.44887 29948 ft 462 kts 330°
2026-05-07 18:22 53.71349 -1.46609 29450 ft 456 kts 330°
2026-05-07 18:22 53.74970 -1.49978 28543 ft 442 kts 330°
2026-05-07 18:22 53.77629 -1.52455 27889 ft 432 kts 330°
2026-05-07 18:23 53.80239 -1.54892 27311 ft 427 kts 330°
2026-05-07 18:23 53.82832 -1.57317 26742 ft 425 kts 329°
2026-05-07 18:23 53.85417 -1.59738 26190 ft 424 kts 329°
2026-05-07 18:23 53.87992 -1.62153 25635 ft 422 kts 329°
2026-05-07 18:24 53.90533 -1.64539 25081 ft 413 kts 329°
2026-05-07 18:24 53.93009 -1.66865 24590 ft 402 kts 329°
2026-05-07 18:24 53.95426 -1.69139 24108 ft 392 kts 329°
2026-05-07 18:24 53.97796 -1.71374 23645 ft 389 kts 329°
2026-05-07 18:25 54.00155 -1.73603 23106 ft 388 kts 329°
2026-05-07 18:25 54.02516 -1.75836 22563 ft 388 kts 329°
2026-05-07 18:25 54.04874 -1.78069 22027 ft 387 kts 329°
2026-05-07 18:25 54.07222 -1.80294 21498 ft 386 kts 329°
2026-05-07 18:26 54.09565 -1.82517 20980 ft 385 kts 329°
2026-05-07 18:26 54.11872 -1.84693 20474 ft 384 kts 331°
2026-05-07 18:26 54.14413 -1.86075 19947 ft 387 kts 351°
2026-05-07 18:26 54.17091 -1.85964 19467 ft 385 kts
2026-05-07 18:27 54.19693 -1.85164 19004 ft 375 kts 10°
2026-05-07 18:27 54.22220 -1.84307 18524 ft 366 kts 11°
2026-05-07 18:27 54.24692 -1.83468 18062 ft 358 kts 10°
2026-05-07 18:27 54.26307 -1.82931 17729 ft 356 kts 10°
2026-05-07 18:28 54.29567 -1.81875 17115 ft 357 kts 10°
2026-05-07 18:28 54.32007 -1.81100 16672 ft 357 kts
2026-05-07 18:28 54.34411 -1.80342 16239 ft 356 kts
2026-05-07 18:28 54.36844 -1.79575 15803 ft 355 kts
2026-05-07 18:29 54.39271 -1.78810 15372 ft 354 kts
2026-05-07 18:29 54.41688 -1.78046 15059 ft 350 kts
2026-05-07 18:29 54.44067 -1.77294 15014 ft 346 kts
2026-05-07 18:29 54.46435 -1.76544 15016 ft 346 kts
2026-05-07 18:30 54.48810 -1.75792 15027 ft 348 kts
2026-05-07 18:30 54.51200 -1.75034 14711 ft 353 kts
2026-05-07 18:30 54.53612 -1.74267 14194 ft 350 kts
2026-05-07 18:30 54.55981 -1.73513 13693 ft 343 kts
2026-05-07 18:31 54.58274 -1.72782 13154 ft 337 kts
2026-05-07 18:31 54.60562 -1.72051 12625 ft 332 kts
2026-05-07 18:31 54.62815 -1.71332 12103 ft 327 kts
2026-05-07 18:31 54.65032 -1.70624 11597 ft 322 kts
2026-05-07 18:32 54.67216 -1.69925 11157 ft 316 kts
2026-05-07 18:32 54.69358 -1.69238 10752 ft 312 kts
2026-05-07 18:32 54.71487 -1.68510 10391 ft 313 kts 14°
2026-05-07 18:32 54.73553 -1.67300 10024 ft 314 kts 19°
2026-05-07 18:33 54.75583 -1.65951 9620 ft 309 kts 20°
2026-05-07 18:33 54.77570 -1.64608 9143 ft 304 kts 20°
2026-05-07 18:33 54.79522 -1.63279 8690 ft 299 kts 20°
2026-05-07 18:33 54.81447 -1.61969 8246 ft 295 kts 20°
2026-05-07 18:34 54.83318 -1.60699 7809 ft 291 kts 20°
2026-05-07 18:34 54.85190 -1.59430 7375 ft 288 kts 20°
2026-05-07 18:34 54.87047 -1.58174 6948 ft 284 kts 20°
2026-05-07 18:34 54.88882 -1.56933 6527 ft 282 kts 20°
2026-05-07 18:35 54.90700 -1.55703 6086 ft 279 kts 20°
2026-05-07 18:35 54.92500 -1.54482 5636 ft 277 kts 22°
2026-05-07 18:35 54.94122 -1.52718 5192 ft 274 kts 38°
2026-05-07 18:35 54.95606 -1.50646 4767 ft 273 kts 40°
2026-05-07 18:36 54.97067 -1.48555 4329 ft 270 kts 40°
2026-05-07 18:36 54.98495 -1.46504 3928 ft 262 kts 40°
2026-05-07 18:36 54.99879 -1.44526 3555 ft 251 kts 40°
2026-05-07 18:36 55.01163 -1.42698 3493 ft 232 kts 40°
2026-05-07 18:37 55.02373 -1.40989 3467 ft 216 kts 40°
2026-05-07 18:37 55.03500 -1.39406 3466 ft 199 kts 40°
2026-05-07 18:37 55.04551 -1.37914 3487 ft 193 kts 40°
2026-05-07 18:37 55.05591 -1.36436 3495 ft 193 kts 40°
2026-05-07 18:38 55.06631 -1.34964 3496 ft 193 kts 40°
2026-05-07 18:38 55.07671 -1.33491 3503 ft 192 kts 40°
2026-05-07 18:38 55.08704 -1.32019 3519 ft 191 kts 40°
2026-05-07 18:38 55.09738 -1.30557 3495 ft 191 kts 36°
2026-05-07 18:39 55.10956 -1.29814 3484 ft 184 kts 354°
2026-05-07 18:39 55.12076 -1.30617 3513 ft 177 kts 305°
2026-05-07 18:39 55.12454 -1.32530 3516 ft 166 kts 265°
2026-05-07 18:39 55.12447 -1.34542 3501 ft 165 kts 264°
2026-05-07 18:40 55.12204 -1.36450 3503 ft 159 kts 246°
2026-05-07 18:40 55.11841 -1.38280 3494 ft 160 kts 246°
2026-05-07 18:40 55.11431 -1.40086 3492 ft 160 kts 244°
2026-05-07 18:40 55.10984 -1.41885 3393 ft 164 kts 243°
2026-05-07 18:41 55.10519 -1.43686 3193 ft 159 kts 242°
2026-05-07 18:41 55.10074 -1.45378 2972 ft 148 kts 241°
2026-05-07 18:41 55.09659 -1.46944 2803 ft 136 kts 241°
2026-05-07 18:41 55.09264 -1.48424 2647 ft 132 kts 240°
2026-05-07 18:42 55.08879 -1.49866 2454 ft 131 kts 240°
2026-05-07 18:42 55.08493 -1.51308 2277 ft 134 kts 239°
2026-05-07 18:42 55.08098 -1.52790 2100 ft 135 kts 239°
2026-05-07 18:42 55.07705 -1.54264 1922 ft 133 kts 240°
2026-05-07 18:43 55.07318 -1.55714 1744 ft 132 kts 240°
2026-05-07 18:43 55.06935 -1.57160 1521 ft 130 kts 240°
2026-05-07 18:43 55.06556 -1.58591 1374 ft 131 kts 242°
2026-05-07 18:43 55.06163 -1.60050 1255 ft 136 kts 242°
2026-05-07 18:44 55.05783 -1.61558 1096 ft 136 kts 240°
2026-05-07 18:44 55.05383 -1.63034 866 ft 130 kts 240°
2026-05-07 18:44 55.04997 -1.64466 670 ft 132 kts 240°
2026-05-07 18:44 55.04618 -1.65896 480 ft 135 kts 241°
2026-05-07 18:45 55.04212 -1.67409 310 ft 139 kts 242°
2026-05-07 18:45 55.03823 -1.68847 261 ft 118 kts 245°
2026-05-07 18:45 55.03574 -1.69798 271 ft 58 kts 245°
2026-05-07 18:45 55.03448 -1.70273 273 ft 26 kts 245°
2026-05-07 18:46 55.03396 -1.70472 272 ft 15 kts 245°
2026-05-07 18:46 55.03403 -1.70612 273 ft 9 kts 310°
2026-05-07 18:46 55.03437 -1.70649 275 ft 6 kts 345°
2026-05-07 18:46 55.03508 -1.70652 273 ft 12 kts
2026-05-07 18:47 55.03580 -1.70624 276 ft 10 kts 39°
2026-05-07 18:47 55.03597 -1.70515 273 ft 10 kts 78°
2026-05-07 18:47 55.03644 -1.70443 273 ft 10 kts 11°
2026-05-07 18:47 55.03696 -1.70438 271 ft 5 kts 347°
2026-05-07 18:48 55.03702 -1.70485 270 ft 4 kts 263°
2026-05-07 18:48 55.03699 -1.70532 271 ft 4 kts 263°
2026-05-07 18:48 55.03697 -1.70564 271 ft 0 kts 263°
2026-05-07 18:48 55.03697 -1.70566 271 ft 0 kts 263°